| time (UTC) | temp F | wind direction | speed knots | gust knots | rain 1hr in | rain 24hr in | rain mn in | humidity % | barometer mb |
| 20260508131559 | 52 | 272 | 3.5 | 7.0 | 0.00 | 0.00 | 0.00 | 78 | 1003.0 |
| 20260508124607 | 51 | 311 | 3.5 | 8.7 | 0.00 | 0.00 | 0.00 | 78 | 1003.1 |
| 20260508123115 | 50 | 350 | 3.5 | 8.7 | 0.00 | 0.00 | 0.00 | 79 | 1003.2 |
| 20260508121600 | 50 | 1 | 3.5 | 8.7 | 0.00 | 0.00 | 0.00 | 81 | 1003.2 |
| 20260508120101 | 49 | 315 | 3.5 | 10.4 | 0.00 | 0.00 | 0.00 | 83 | 1003.2 |
| 20260508114600 | 48 | 315 | 3.5 | 7.8 | 0.00 | 0.00 | 0.00 | 84 | 1003.2 |
| 20260508113106 | 47 | 358 | 2.6 | 6.1 | 0.00 | 0.00 | 0.00 | 86 | 1003.0 |
| 20260508111602 | 0 | 9 | 1.7 | 4.3 | 0.00 | 0.00 | 0.00 | 1003.0 | |
| 20260508110056 | 0 | 276 | 2.6 | 4.3 | 0.00 | 0.00 | 0.00 | 1002.9 | |
| 20260508104601 | 0 | 270 | 0.9 | 2.6 | 0.00 | 0.00 | 0.00 | 1002.8 | |
| 20260508103056 | 0 | 0 | 0.0 | 1.7 | 0.00 | 0.00 | 0.00 | 1002.7 | |
| 20260508101604 | 0 | 0 | 0.0 | 0.9 | 0.00 | 0.00 | 0.00 | 1002.7 | |
| 20260508100051 | 0 | 0 | 0.0 | 1.7 | 0.00 | 0.00 | 0.00 | 1002.5 | |
| 20260508094612 | 0 | 245 | 0.0 | 1.7 | 0.00 | 0.00 | 0.00 | 1002.5 | |
| 20260508093057 | 0 | 292 | 0.0 | 1.7 | 0.00 | 0.00 | 0.00 | 1002.4 | |
| 20260508091553 | 0 | 0 | 0.0 | 1.7 | 0.00 | 0.00 | 0.00 | 1002.5 | |
| 20260508090055 | 0 | 252 | 0.0 | 1.7 | 0.00 | 0.00 | 0.00 | 1002.5 | |
| 20260508084555 | 0 | 256 | 0.0 | 2.6 | 0.00 | 0.00 | 0.00 | 1002.4 | |
| 20260508083058 | 0 | 273 | 0.9 | 4.3 | 0.00 | 0.00 | 0.00 | 1002.2 | |
| 20260508081619 | 0 | 324 | 0.9 | 2.6 | 0.00 | 0.00 | 0.00 | 1002.4 | |
| 20260508080053 | 0 | 275 | 2.6 | 4.3 | 0.00 | 0.00 | 0.00 | 1002.4 | |
| 20260508074553 | 0 | 0 | 0.9 | 3.5 | 0.00 | 0.00 | 0.00 | 1002.7 | |
| 20260508073053 | 0 | 34 | 1.7 | 5.2 | 0.00 | 0.00 | 0.00 | 1002.8 | |
| 20260508071557 | 0 | 156 | 1.7 | 5.2 | 0.00 | 0.00 | 0.00 | 1002.7 | |
| 20260508070057 | 0 | 319 | 1.7 | 6.1 | 0.00 | 0.00 | 0.00 | 1002.6 | |
| 20260508064555 | 0 | 6 | 1.7 | 6.1 | 0.00 | 0.00 | 0.00 | 1002.4 | |
| 20260508063103 | 0 | 265 | 0.0 | 4.3 | 0.00 | 0.00 | 0.00 | 1002.7 | |
| 20260508061555 | 0 | 353 | 0.9 | 2.6 | 0.00 | 0.00 | 0.00 | 1002.4 | |
| 20260508060058 | 0 | 329 | 0.0 | 0.9 | 0.00 | 0.00 | 0.00 | 1002.4 | |
| 20260508054554 | 0 | 0 | 0.0 | 0.9 | 0.00 | 0.00 | 0.00 | 1002.6 | |
| 20260508053057 | 0 | 348 | 0.0 | 2.6 | 0.00 | 0.00 | 0.00 | 1002.6 | |
| 20260508051556 | 0 | 4 | 0.0 | 2.6 | 0.00 | 0.00 | 0.00 | 1002.4 | |
| 20260508050055 | 0 | 315 | 0.9 | 2.6 | 0.00 | 0.00 | 0.00 | 1002.6 | |
| 20260508044552 | 0 | 341 | 0.9 | 2.6 | 0.00 | 0.00 | 0.00 | 1002.8 | |
| 20260508043054 | 0 | 281 | 0.0 | 1.7 | 0.00 | 0.00 | 0.00 | 1003.0 | |
| 20260508041553 | 0 | 0 | 0.0 | 2.6 | 0.00 | 0.00 | 0.00 | 1002.6 | |
| 20260508034555 | 0 | 0 | 0.0 | 1.7 | 0.00 | 0.00 | 0.00 | 1002.7 | |
| 20260508033054 | 0 | 0 | 0.0 | 3.5 | 0.00 | 0.00 | 0.00 | 1002.7 | |
| 20260508031557 | 0 | 266 | 0.0 | 2.6 | 0.00 | 0.00 | 0.00 | 1002.9 | |
| 20260508030055 | 0 | 185 | 0.0 | 3.5 | 0.00 | 0.00 | 0.00 | 1003.2 | |
| 20260508024556 | 0 | 206 | 0.0 | 2.6 | 0.00 | 0.00 | 0.00 | 1003.3 | |
| 20260508023054 | 0 | 276 | 0.9 | 5.2 | 0.00 | 0.00 | 0.00 | 1003.5 | |
| 20260508021556 | 0 | 248 | 1.7 | 7.8 | 0.00 | 0.00 | 0.00 | 1003.5 | |
| 20260508020104 | 0 | 291 | 2.6 | 6.1 | 0.00 | 0.00 | 0.00 | 1003.4 | |
| 20260508014559 | 0 | 267 | 0.9 | 5.2 | 0.00 | 0.00 | 0.00 | 1003.5 | |
| 20260508013053 | 0 | 205 | 1.7 | 5.2 | 0.00 | 0.00 | 0.00 | 1003.4 | |
| 20260508011553 | 0 | 238 | 0.9 | 3.5 | 0.00 | 0.00 | 0.00 | 1003.6 | |
| 20260508010055 | 0 | 0 | 0.0 | 1.7 | 0.00 | 0.00 | 0.00 | 1003.1 | |
| 20260508004602 | 0 | 0 | 0.0 | 0.9 | 0.00 | 0.00 | 0.00 | 1003.0 | |
| 20260508003100 | 0 | 217 | 0.0 | 0.9 | 0.00 | 0.00 | 0.00 | 1002.8 | |
| 20260508001557 | 0 | 169 | 0.0 | 0.9 | 0.00 | 0.00 | 0.00 | 1002.8 | |
| 20260508000059 | 0 | 219 | 0.0 | 0.9 | 0.00 | 0.00 | 0.00 | 1002.7 | |
| 20260507234559 | 0 | 0 | 0.0 | 2.6 | 0.00 | 0.00 | 0.00 | 1002.7 | |
| 20260507233054 | 0 | 240 | 1.7 | 3.5 | 0.00 | 0.00 | 0.00 | 1002.7 | |
| 20260507231559 | 51 | 307 | 0.0 | 3.5 | 0.00 | 0.00 | 0.00 | 82 | 1002.5 |
| 20260507230056 | 53 | 19 | 0.0 | 3.5 | 0.00 | 0.00 | 0.00 | 80 | 1002.7 |
| 20260507224559 | 55 | 348 | 0.9 | 4.3 | 0.00 | 0.00 | 0.00 | 79 | 1002.5 |
| 20260507223055 | 56 | 312 | 1.7 | 3.5 | 0.00 | 0.00 | 0.00 | 76 | 1002.2 |
| 20260507221555 | 57 | 0 | 0.9 | 6.1 | 0.00 | 0.00 | 0.00 | 73 | 1002.4 |
| 20260507220057 | 57 | 212 | 2.6 | 5.2 | 0.00 | 0.00 | 0.00 | 75 | 1002.2 |
| 20260507214604 | 57 | 314 | 0.9 | 6.1 | 0.00 | 0.00 | 0.00 | 76 | 1002.2 |
| 20260507213053 | 56 | 137 | 2.6 | 7.0 | 0.00 | 0.00 | 0.00 | 78 | 1002.3 |
| 20260507211559 | 56 | 205 | 0.9 | 7.8 | 0.00 | 0.00 | 0.00 | 79 | 1002.0 |
| 20260507210059 | 55 | 23 | 2.6 | 7.8 | 0.00 | 0.00 | 0.00 | 82 | 1002.2 |
| 20260507204556 | 55 | 236 | 4.3 | 7.0 | 0.00 | 0.00 | 0.00 | 83 | 1002.2 |
| 20260507203105 | 55 | 233 | 3.5 | 11.3 | 0.00 | 0.00 | 0.00 | 87 | 1002.0 |
| 20260507201559 | 53 | 243 | 3.5 | 8.7 | 0.00 | 0.00 | 0.00 | 88 | 1002.2 |
| 20260507200108 | 53 | 214 | 2.6 | 7.8 | 0.00 | 0.00 | 0.00 | 91 | 1002.2 |
| 20260507194556 | 54 | 232 | 2.6 | 8.7 | 0.00 | 0.00 | 0.00 | 94 | 1002.2 |
| 20260507193058 | 52 | 294 | 3.5 | 8.7 | 0.00 | 0.00 | 0.00 | 96 | 1002.3 |
| 20260507191604 | 52 | 271 | 2.6 | 7.0 | 0.00 | 0.00 | 0.00 | 97 | 1002.4 |
| 20260507190105 | 52 | 201 | 1.7 | 7.8 | 0.00 | 0.00 | 0.00 | 97 | 1002.2 |
| 20260507184601 | 51 | 289 | 3.5 | 7.8 | 0.00 | 0.00 | 0.00 | 97 | 1001.9 |
| 20260507183104 | 0 | 353 | 1.7 | 7.0 | 0.00 | 0.00 | 0.00 | 1002.2 | |
| 20260507181603 | 0 | 293 | 2.6 | 9.6 | 0.00 | 0.00 | 0.00 | 1002.2 | |
| 20260507180059 | 0 | 296 | 3.5 | 8.7 | 0.00 | 0.00 | 0.00 | 1002.2 | |
| 20260507174559 | 0 | 329 | 2.6 | 6.1 | 0.00 | 0.00 | 0.00 | 1002.1 | |
| 20260507173106 | 0 | 353 | 1.7 | 7.8 | 0.00 | 0.00 | 0.00 | 1001.8 | |
| 20260507171604 | 0 | 299 | 3.5 | 13.9 | 0.00 | 0.00 | 0.00 | 1002.6 | |
| 20260507164606 | 0 | 260 | 1.7 | 4.3 | 0.00 | 0.00 | 0.00 | 1001.9 | |
| 20260507163056 | 0 | 173 | 5.2 | 10.4 | 0.00 | 0.00 | 0.00 | 1001.0 | |
| 20260507161558 | 0 | 154 | 7.0 | 11.3 | 0.00 | 0.00 | 0.00 | 1001.4 | |
| 20260507160057 | 0 | 170 | 7.0 | 10.4 | 0.00 | 0.00 | 0.00 | 1002.0 | |
| 20260507154601 | 0 | 142 | 4.3 | 9.6 | 0.00 | 0.00 | 0.00 | 1002.4 | |
| 20260507153106 | 0 | 105 | 2.6 | 4.3 | 0.00 | 0.00 | 0.00 | 1002.6 | |
| 20260507151553 | 0 | 144 | 7.0 | 10.4 | 0.00 | 0.00 | 0.00 | 1003.4 | |
| 20260507150059 | 0 | 180 | 2.6 | 7.0 | 0.00 | 0.00 | 0.00 | 1003.0 | |
| 20260507144556 | 0 | 109 | 1.7 | 3.5 | 0.00 | 0.00 | 0.00 | 1003.4 | |
| 20260507143058 | 0 | 129 | 0.9 | 2.6 | 0.00 | 0.00 | 0.00 | 1004.2 | |
| 20260507141554 | 0 | 0 | 0.0 | 2.6 | 0.00 | 0.00 | 0.00 | 1004.3 | |
| 20260507140057 | 0 | 258 | 0.0 | 3.5 | 0.00 | 0.00 | 0.00 | 1004.7 | |
| 20260507134603 | 0 | 161 | 7.8 | 13.9 | 0.00 | 0.00 | 0.00 | 1004.1 | |
| 20260507133115 | 0 | 223 | 7.0 | 14.8 | 0.00 | 0.00 | 0.00 | 1004.2 |